Location: Arcusa
(42.3167°N, 0.0833°W)
Time: 22:00:17
(UTC+00:00)

STARLINK-1059 - Pass Details

Date: 25 January 2020
Orbit: 548 x 551 km, 53.0° (Epoch: 25 February)

Event Time Altitude Azimuth Distance (km) Brightness Sun altitude
Exits shadow 05:29:01 60° 243° (WSW) 623 3.5 -20.6°
Maximum altitude 05:29:44 84° 322° (NW) 548 3.4 -20.5°
Drops below altitude 10° 05:33:50 10° 52° (NE) 1,802 6.8 -19.7°
Sets 05:36:03 0° 53° (NE) 2,694 7.8 -19.3°
